Change the Weather History Date:

Tuesday, May 14, 2013

  Actual Average Record
Temperature  
Mean Temperature 52 °F 59 °F  
Max Temperature 71 °F 70 °F 88 °F (1962)
Min Temperature 33 °F 49 °F 27 °F (1939)
Degree Days  
Heating Degree Days 13 7  
Month to date heating degree days 132 109  
Since 1 July heating degree days 5221 5218  
Cooling Degree Days 0 1  
Month to date cooling degree days 2 8  
Year to date cooling degree days 18 18  
Growing Degree Days 2 (Base 50)    
Moisture  
Dew Point 33 °F    
Average Humidity 55    
Maximum Humidity 82    
Minimum Humidity 27    
Precipitation  
Precipitation 0.00 in 0.16 in 1.76 in (1967)
Month to date precipitation 2.62 2.03  
Year to date precipitation 13.69 14.53  
Snow  
Snow 0.00 in - - ()
Month to date snowfall 0.0  
Since 1 September snowfall 72.0  
Snow Depth 0.00 in    
Sea Level Pressure  
Sea Level Pressure 30.12 in    
Wind  
Wind Speed 7 mph (SW)    
Max Wind Speed 17 mph    
Max Gust Speed 23 mph    
Visibility 10 miles    
Events      
T = Trace of Precipitation, MM = Missing Value Source: NWS Daily Summary

Daily Weather History Graph

Daily Weather History Graph

Search for Another Location

Airport or City:

Trip Planner

Search our weather history database for the weather conditions in past years. The results will help you decide how hot, cold, wet, or windy it might be!

Date:

Astronomy

May. 14, 2013 Rise Set
Actual Time 6:15 AM EDT 8:26 PM EDT
Civil Twilight 5:45 AM EDT 8:56 PM EDT
Nautical Twilight 5:10 AM EDT 9:32 PM EDT
Astronomical Twilight 4:30 AM EDT 10:11 PM EDT
Moon 9:53 AM EDT (5/14) No Moon Set
Length of Visible Light 15h 10m
Length of Day
14h 11m
Waxing Crescent, 19% of the Moon is Illuminated
May 14
Waxing Crescent
May 18
First Quarter
May 25
Full
May 31
Last Quarter
Jun 8
New

Hourly Weather History & Observations

Time (EDT) Temp. Windchill Dew Point Humidity Pressure Visibility Wind Dir Wind Speed Gust Speed Precip Events Conditions
12:51 AM 37.0 °F 33.3 °F 30.0 °F 76% 30.21 in 10.0 mi SSE 4.6 mph - N/A   Clear
1:51 AM 36.0 °F - 30.0 °F 79% 30.21 in 10.0 mi Calm Calm - N/A   Clear
2:51 AM 35.1 °F 32.2 °F 30.0 °F 82% 30.20 in 10.0 mi South 3.5 mph - N/A   Clear
3:51 AM 36.0 °F - 30.0 °F 79% 30.20 in 10.0 mi Calm Calm - N/A   Clear
4:51 AM 34.0 °F 31.0 °F 28.0 °F 79% 30.22 in 10.0 mi South 3.5 mph - N/A   Clear
5:51 AM 35.1 °F - 28.0 °F 76% 30.22 in 10.0 mi Calm Calm - N/A   Clear
6:51 AM 39.0 °F 35.7 °F 28.0 °F 65% 30.22 in 10.0 mi South 4.6 mph - N/A   Clear
7:51 AM 44.1 °F 42.5 °F 30.0 °F 58% 30.22 in 10.0 mi SSW 3.5 mph - N/A   Clear
8:51 AM 48.9 °F - 30.0 °F 48% 30.22 in 10.0 mi Variable 4.6 mph - N/A   Clear
9:51 AM 53.1 °F - 28.9 °F 40% 30.22 in 10.0 mi SW 8.1 mph - N/A   Clear
10:51 AM 57.0 °F - 28.9 °F 34% 30.20 in 10.0 mi West 9.2 mph 18.4 mph N/A   Clear
11:51 AM 57.9 °F - 30.0 °F 35% 30.19 in 10.0 mi West 10.4 mph 16.1 mph N/A   Overcast
12:51 PM 57.9 °F - 27.0 °F 31% 30.17 in 10.0 mi West 10.4 mph - N/A   Overcast
1:51 PM 60.8 °F - 28.4 °F 29% 30.13 in 10.0 mi SSW 9.2 mph - N/A   Mostly Cloudy
2:51 PM 64.9 °F - 32.0 °F 29% 30.10 in 10.0 mi SW 9.2 mph - N/A   Scattered Clouds
3:51 PM 68.0 °F - 34.0 °F 28% 30.06 in 10.0 mi West 15.0 mph - N/A   Clear
4:51 PM 70.0 °F - 35.1 °F 28% 30.04 in 10.0 mi West 15.0 mph 18.4 mph N/A   Partly Cloudy
5:51 PM 70.0 °F - 36.0 °F 29% 30.01 in 10.0 mi WSW 10.4 mph - N/A   Clear
6:51 PM 69.1 °F - 37.9 °F 32% 29.99 in 10.0 mi SW 13.8 mph 18.4 mph N/A   Clear
7:51 PM 66.9 °F - 39.9 °F 37% 29.97 in 10.0 mi SSW 10.4 mph 20.7 mph N/A   Partly Cloudy
8:51 PM 64.0 °F - 42.1 °F 45% 29.98 in 10.0 mi SSW 8.1 mph - N/A   Scattered Clouds
9:51 PM 62.1 °F - 43.0 °F 50% 29.98 in 10.0 mi SSW 6.9 mph - N/A   Clear
10:51 PM 61.0 °F - 45.0 °F 56% 29.99 in 10.0 mi SW 5.8 mph - N/A   Clear
11:51 PM 60.1 °F - 45.0 °F 57% 30.00 in 10.0 mi WNW 3.5 mph - N/A   Clear